MMPR

Licenciado Gustavo Díaz Ordaz International Airport

Airport
ICAO code
MMPR
IATA Code
PVR
Summary
ICAO Region
CARSAM
ICAO Territory
Location

Puerto Vallarta, Jalisco

Serving
Puerto Vallarta
Elevation
23 ft
Coordinates
20° 40' 48" N , 105° 15' 15" W
KCC
Metar
MMPR 141940Z 22012KT 10SM FEW020 31/25 A2981 RMK 8/400 MDT CU/NW HZY

International airport 2 nm north west of Puerto Vallarta, Mexico.

Climatology

Tropical Savanna climate (Köppen climate classification Aw)

Runways

Designator Length Width Surface Rops
4/22 3100 45 ASP Yes/Yes

Airport map

Aerial View

SKYbrary Partners:

Safety knowledge contributed by: